DW5225 Weather Reports


Display with metric or nautical units.
time (UTC)temp
F
wind
direction
speed
MPH
gust
MPH
rain 1hr
in
rain 24hr
in
rain mn
in
humidity
%
barometer
mb
20260507194612 47 0 0.0 0.0 0.00 0.06 0.06 89 1016.5
20260507193043 47 0 0.0 0.0 0.03 0.06 0.06 88 1016.4
20260507191540 47 0 0.0 0.0 0.05 0.06 0.06 88 1015.9
20260507190049 47 0 0.0 0.0 0.05 0.06 0.06 87 1015.6
20260507184540 48 0 0.0 0.0 0.05 0.05 0.05 85 1015.5
20260507183047 48 0 0.0 0.0 0.02 0.02 0.02 84 1015.5
20260507181551 50 0 0.0 0.0 0.00 0.00 0.00 79 1015.3
20260507180042 52 0 0.0 0.0 0.00 0.00 0.00 73 1015.0
20260507174552 52 0 0.0 0.0 0.00 0.00 0.00 71 1014.6
20260507173103 53 0 0.0 0.0 0.00 0.00 0.00 69 1014.4
20260507171545 53 0 0.0 0.0 0.00 0.00 0.00 69 1014.2
20260507170039 54 0 0.0 0.0 0.00 0.00 0.00 65 1014.0
20260507164549 55 0 0.0 0.0 0.00 0.00 0.00 63 1014.0
20260507163041 56 0 0.0 0.0 0.00 0.00 0.00 63 1013.7
20260507161556 56 0 0.0 0.0 0.00 0.00 0.00 62 1013.6
20260507160042 57 0 0.0 0.0 0.00 0.00 0.00 59 1013.5
20260507154542 57 0 0.0 0.0 0.00 0.00 0.00 57 1013.4
20260507153038 56 0 0.0 0.0 0.00 0.00 0.00 60 1013.4
20260507151542 55 0 0.0 0.0 0.00 0.00 0.00 61 1013.4
20260507150042 56 0 0.0 0.0 0.00 0.00 0.00 59 1013.4
20260507144542 56 0 0.0 0.0 0.00 0.00 0.00 57 1013.2
20260507143040 57 0 0.0 0.0 0.00 0.00 0.00 54 1013.2
20260507141545 57 0 0.0 0.0 0.00 0.00 0.00 53 1013.2
20260507140038 57 0 0.0 0.0 0.00 0.00 0.00 55 1013.0
20260507134544 57 0 0.0 0.0 0.00 0.00 0.00 54 1013.1
20260507133042 57 0 0.0 0.0 0.00 0.00 0.00 56 1013.0
20260507131539 57 0 0.0 0.0 0.00 0.00 0.00 58 1013.0
20260507130039 55 0 0.0 0.0 0.00 0.00 0.00 64 1013.1
20260507124538 54 0 0.0 0.0 0.00 0.00 0.00 62 1013.4
20260507123045 56 0 0.0 0.0 0.00 0.00 0.00 57 1013.1
20260507121544 58 0 0.0 0.0 0.00 0.00 0.00 55 1013.0
20260507120046 58 0 0.0 0.0 0.00 0.00 0.00 54 1012.8
20260507114542 57 0 0.0 0.0 0.00 0.00 0.00 56 1012.8
20260507113046 56 0 0.0 0.0 0.00 0.00 0.00 57 1013.0
20260507111547 57 0 0.0 0.0 0.00 0.00 0.00 55 1013.0
20260507110046 56 0 0.0 0.0 0.00 0.00 0.00 57 1013.0
20260507104542 56 0 0.0 0.0 0.00 0.00 0.00 58 1013.1
20260507103041 55 0 0.0 0.0 0.00 0.00 0.00 62 1013.2
20260507101541 54 0 0.0 0.0 0.00 0.00 0.00 68 1013.4
20260507100042 53 0 0.0 0.0 0.00 0.00 0.00 70 1013.4
20260507094537 53 0 0.0 0.0 0.00 0.00 0.00 71 1013.4
20260507093036 53 0 0.0 0.0 0.00 0.00 0.00 73 1013.4
20260507091545 53 0 0.0 0.0 0.00 0.00 0.00 66 1013.4
20260507090044 52 0 0.0 0.0 0.00 0.00 0.00 74 1013.4
20260507084541 50 0 0.0 0.0 0.00 0.00 0.00 78 1013.6
20260507083040 49 0 0.0 0.0 0.00 0.00 0.00 80 1013.5
20260507081544 48 0 0.0 0.0 0.00 0.00 0.00 81 1013.5
20260507080044 48 0 0.0 0.0 0.00 0.00 0.00 81 1013.5
20260507074543 47 0 0.0 0.0 0.00 0.00 0.00 82 1013.4
20260507073050 47 0 0.0 0.0 0.00 0.00 0.00 83 1013.4
20260507071540 47 0 0.0 0.0 0.00 0.00 0.00 82 1013.2
20260507070043 47 0 0.0 0.0 0.00 0.00 0.00 81 1013.1
20260507064546 47 0 0.0 0.0 0.00 0.00 0.00 81 1013.0
20260507063046 47 0 0.0 0.0 0.00 0.00 0.00 81 1013.1
20260507061542 47 0 0.0 0.0 0.00 0.00 0.00 81 1012.7
20260507060043 47 0 0.0 0.0 0.00 0.00 0.00 82 1012.8
20260507054540 47 0 0.0 0.0 0.00 0.00 0.00 81 1012.8
20260507053041 47 0 0.0 0.0 0.00 0.00 0.00 81 1012.5
20260507051540 46 0 0.0 0.0 0.00 0.00 0.00 82 1012.4
20260507050045 45 0 0.0 0.0 0.00 0.00 0.00 84 1012.2
20260507044542 45 0 0.0 0.0 0.00 0.00 0.00 84 1012.1
20260507043044 44 0 0.0 0.0 0.00 0.00 0.00 84 1012.0
20260507041545 44 0 0.0 0.0 0.00 0.00 0.00 84 1011.9
20260507040040 44 0 0.0 0.0 0.00 0.00 0.00 83 1011.8
20260507034546 44 0 0.0 0.0 0.00 0.00 0.00 83 1011.6
20260507033100 44 0 0.0 0.0 0.00 0.00 0.00 82 1011.6
20260507031542 44 0 0.0 0.0 0.00 0.00 0.00 82 1011.5
20260507030041 44 0 0.0 0.0 0.00 0.00 0.00 83 1011.6
20260507024551 44 0 0.0 0.0 0.00 0.00 0.00 82 1011.5
20260507023040 44 0 0.0 0.0 0.00 0.00 0.00 82 1011.5
20260507021538 44 0 0.0 0.0 0.00 0.00 0.00 81 1011.5
20260507020042 45 0 0.0 0.0 0.00 0.00 0.00 81 1011.3
20260507014540 45 0 0.0 0.0 0.00 0.00 0.00 81 1011.1
20260507013041 46 0 0.0 0.0 0.00 0.00 0.00 81 1011.1
20260507011541 45 0 0.0 0.0 0.00 0.00 0.00 81 1011.1
20260507010041 45 0 0.0 0.0 0.00 0.00 0.00 82 1011.1
20260507004536 45 0 0.0 0.0 0.00 0.00 0.00 81 1011.0
20260507003042 46 0 0.0 0.0 0.00 0.00 0.00 81 1010.9
20260507001604 46 0 0.0 0.0 0.00 0.00 0.00 80 1010.9
20260507000042 47 0 0.0 0.0 0.00 0.00 0.00 79 1010.9
20260506234549 47 0 0.0 0.0 0.00 0.00 0.00 77 1010.7
20260506233040 48 0 0.0 0.0 0.00 0.00 0.00 76 1010.8
20260506231538 48 0 0.0 0.0 0.00 0.00 0.00 74 1010.9
20260506230035 48 0 0.0 0.0 0.00 0.00 0.00 75 1010.8
20260506224600 48 0 0.0 0.0 0.00 0.00 0.00 75 1010.8
20260506223040 49 0 0.0 0.0 0.00 0.00 0.00 76 1010.9
20260506221541 49 0 0.0 0.0 0.00 0.00 0.00 77 1010.8
20260506220045 49 0 0.0 0.0 0.00 0.00 0.00 75 1010.8
20260506214538 50 0 0.0 0.0 0.00 0.00 0.00 74 1010.8
20260506213042 50 0 0.0 0.0 0.00 0.00 0.00 71 1010.6
20260506211550 51 0 0.0 0.0 0.00 0.00 0.00 69 1010.3
20260506210038 51 0 0.0 0.0 0.00 0.00 0.00 69 1010.1
20260506204540 51 0 0.0 0.0 0.00 0.00 0.00 69 1010.1
20260506203040 51 0 0.0 0.0 0.00 0.00 0.00 70 1009.7
20260506201540 51 0 0.0 0.0 0.00 0.00 0.00 68 1009.4
20260506200038 52 0 0.0 0.0 0.00 0.00 0.00 65 1009.1